When you browse on this site, cookies collect data to enhance your experience and personalize the content and advertising you see.
Visit our Privacy Policy to learn more. By continuing to use the site, you agree to this use of cookies and data.
  • In France
  • List of Countries
  • For 7 days
  • Water Temperature
  • Weather Map
  • Weather Widgets
  • user-avatar
    Login

    Hourly Weather Bajdabo

    Today, 22 August, Thursday

    Time Temperature Precipitation Wind Pressure Humidity
    00:00 +24°C° 0 mm 7 mps 723 mmHg 72%
    01:00 +24°C° 0 mm 7 mps 723 mmHg 76%
    02:00 +23°C° 0 mm 7 mps 723 mmHg 79%
    03:00 +23°C° 0 mm 6 mps 722 mmHg 83%
    04:00 +23°C° 0 mm 6 mps 723 mmHg 83%
    05:00 +23°C° 0 mm 7 mps 723 mmHg 83%
    06:00 +23°C° 0 mm 7 mps 724 mmHg 83%
    07:00 +24°C° 0 mm 7 mps 724 mmHg 76%
    08:00 +26°C° 0 mm 8 mps 724 mmHg 70%
    09:00 +28°C° 0 mm 7 mps 724 mmHg 62%
    10:00 +29°C° 0 mm 8 mps 724 mmHg 57%
    11:00 +31°C° 0 mm 8 mps 724 mmHg 52%
    12:00 +32°C° 0 mm 9 mps 723 mmHg 47%
    13:00 +33°C° 0 mm 9 mps 722 mmHg 45%
    14:00 +33°C° 0 mm 9 mps 721 mmHg 43%
    15:00 +34°C° 0 mm 9 mps 721 mmHg 41%
    16:00 +33°C° 0 mm 9 mps 721 mmHg 43%
    17:00 +32°C° 0 mm 8 mps 721 mmHg 44%
    18:00 +32°C° 0 mm 8 mps 721 mmHg 46%
    19:00 +31°C° 0 mm 8 mps 721 mmHg 49%
    20:00 +29°C° 0 mm 8 mps 721 mmHg 52%
    21:00 +28°C° 0 mm 8 mps 722 mmHg 56%
    22:00 +27°C° 0 mm 8 mps 722 mmHg 60%
    23:00 +26°C° 0 mm 8 mps 723 mmHg 65%

    Tomorrow, 23 August, Friday

    Time Temperature Precipitation Wind Pressure Humidity
    00:00 +24°C° 0 mm 7 mps 723 mmHg 69%
    01:00 +24°C° 0 mm 7 mps 723 mmHg 73%
    02:00 +23°C° 0 mm 7 mps 722 mmHg 76%
    03:00 +23°C° 0 mm 7 mps 722 mmHg 80%
    04:00 +23°C° 0 mm 7 mps 723 mmHg 77%
    05:00 +24°C° 0 mm 7 mps 723 mmHg 75%
    06:00 +24°C° 0 mm 6 mps 723 mmHg 72%
    07:00 +26°C° 0 mm 7 mps 724 mmHg 68%
    08:00 +27°C° 0 mm 8 mps 724 mmHg 63%
    09:00 +28°C° 0 mm 8 mps 724 mmHg 59%
    10:00 +29°C° 0 mm 8 mps 724 mmHg 55%
    11:00 +31°C° 0 mm 8 mps 724 mmHg 50%
    12:00 +33°C° 0 mm 8 mps 724 mmHg 46%
    13:00 +33°C° 0 mm 8 mps 723 mmHg 46%
    14:00 +33°C° 0 mm 8 mps 722 mmHg 45%
    15:00 +34°C° 0 mm 8 mps 721 mmHg 44%
    16:00 +33°C° 0 mm 8 mps 721 mmHg 46%
    17:00 +32°C° 0 mm 8 mps 721 mmHg 48%
    18:00 +32°C° 0 mm 7 mps 721 mmHg 50%
    19:00 +31°C° 0 mm 8 mps 721 mmHg 55%
    20:00 +29°C° 0 mm 8 mps 722 mmHg 60%
    21:00 +28°C° 0 mm 8 mps 722 mmHg 65%
    22:00 +27°C° 0 mm 8 mps 723 mmHg 68%
    23:00 +26°C° 0 mm 8 mps 723 mmHg 72%

    Day after tomorrow, 24 August, Saturday

    Time Temperature Precipitation Wind Pressure Humidity
    00:00 +24°C° 0 mm 8 mps 723 mmHg 75%
    01:00 +24°C° 0 mm 7 mps 723 mmHg 78%
    02:00 +24°C° 0 mm 7 mps 722 mmHg 80%
    03:00 +23°C° 0 mm 7 mps 722 mmHg 83%
    04:00 +23°C° 0.1 mm 6 mps 723 mmHg 82%
    05:00 +24°C° 0.1 mm 6 mps 723 mmHg 81%
    06:00 +24°C° 0.1 mm 6 mps 724 mmHg 80%
    07:00 +26°C° 0.1 mm 6 mps 724 mmHg 76%
    08:00 +26°C° 0.1 mm 6 mps 725 mmHg 71%
    09:00 +27°C° 0.1 mm 7 mps 725 mmHg 67%
    10:00 +29°C° 0.1 mm 7 mps 725 mmHg 61%
    11:00 +30°C° 0.1 mm 7 mps 725 mmHg 56%
    12:00 +32°C° 0.1 mm 7 mps 724 mmHg 50%
    13:00 +33°C° 0.4 mm 7 mps 723 mmHg 49%
    14:00 +33°C° 0.4 mm 6 mps 723 mmHg 47%
    15:00 +33°C° 0.4 mm 6 mps 722 mmHg 46%
    16:00 +32°C° 0.9 mm 7 mps 722 mmHg 50%
    17:00 +30°C° 0.9 mm 7 mps 722 mmHg 54%
    18:00 +29°C° 0.9 mm 7 mps 722 mmHg 59%
    19:00 +28°C° 0.2 mm 7 mps 722 mmHg 63%
    20:00 +27°C° 0.2 mm 7 mps 723 mmHg 67%
    21:00 +26°C° 0.2 mm 7 mps 723 mmHg 71%
    22:00 +26°C° 0 mm 7 mps 723 mmHg 74%
    23:00 +24°C° 0 mm 7 mps 723 mmHg 76%

    25 August, Sunday

    Time Temperature Precipitation Wind Pressure Humidity
    00:00 +24°C° 0 mm 7 mps 723 mmHg 78%
    01:00 +23°C° 0 mm 6 mps 723 mmHg 80%
    02:00 +23°C° 0 mm 6 mps 723 mmHg 82%
    03:00 +23°C° 0 mm 6 mps 723 mmHg 83%
    04:00 +23°C° 0 mm 6 mps 723 mmHg 84%
    05:00 +23°C° 0 mm 5 mps 723 mmHg 85%
    06:00 +23°C° 0 mm 5 mps 724 mmHg 86%
    07:00 +24°C° 0.1 mm 6 mps 724 mmHg 80%
    08:00 +26°C° 0.1 mm 6 mps 725 mmHg 75%
    09:00 +27°C° 0.1 mm 7 mps 725 mmHg 70%
    10:00 +28°C° 0.1 mm 7 mps 725 mmHg 66%
    11:00 +29°C° 0.1 mm 7 mps 724 mmHg 61%
    12:00 +29°C° 0.1 mm 7 mps 724 mmHg 57%
    13:00 +30°C° 0.1 mm 7 mps 723 mmHg 55%
    14:00 +30°C° 0.1 mm 7 mps 722 mmHg 54%
    15:00 +32°C° 0.1 mm 7 mps 722 mmHg 52%
    16:00 +30°C° 0.1 mm 7 mps 722 mmHg 54%
    17:00 +30°C° 0.1 mm 7 mps 722 mmHg 55%
    18:00 +29°C° 0.1 mm 7 mps 722 mmHg 57%
    19:00 +28°C° 0 mm 7 mps 722 mmHg 60%
    20:00 +28°C° 0 mm 7 mps 723 mmHg 63%
    21:00 +27°C° 0 mm 7 mps 723 mmHg 66%
    22:00 +26°C° 0 mm 7 mps 723 mmHg 70%
    23:00 +24°C° 0 mm 7 mps 723 mmHg 75%

    26 August, Monday

    Time Temperature Precipitation Wind Pressure Humidity
    00:00 +23°C° 0 mm 6 mps 723 mmHg 79%
    01:00 +23°C° 0 mm 6 mps 723 mmHg 80%
    02:00 +23°C° 0 mm 6 mps 723 mmHg 80%
    03:00 +23°C° 0 mm 6 mps 723 mmHg 81%
    04:00 +23°C° 0 mm 6 mps 723 mmHg 81%
    05:00 +22°C° 0 mm 6 mps 723 mmHg 81%
    06:00 +22°C° 0 mm 5 mps 723 mmHg 82%
    07:00 +23°C° 0 mm 6 mps 724 mmHg 76%
    08:00 +26°C° 0 mm 6 mps 725 mmHg 70%
    09:00 +27°C° 0 mm 6 mps 725 mmHg 64%
    10:00 +27°C° 0 mm 6 mps 725 mmHg 61%
    11:00 +28°C° 0 mm 6 mps 724 mmHg 57%
    12:00 +29°C° 0 mm 6 mps 724 mmHg 54%
    13:00 +29°C° 0 mm 6 mps 723 mmHg 53%
    14:00 +30°C° 0 mm 7 mps 722 mmHg 51%
    15:00 +30°C° 0 mm 7 mps 721 mmHg 50%
    16:00 +30°C° 0 mm 7 mps 721 mmHg 51%
    17:00 +29°C° 0 mm 7 mps 721 mmHg 53%
    18:00 +29°C° 0 mm 7 mps 721 mmHg 55%
    19:00 +28°C° 0 mm 7 mps 722 mmHg 59%
    20:00 +27°C° 0 mm 7 mps 722 mmHg 64%
    21:00 +26°C° 0 mm 7 mps 723 mmHg 69%
    22:00 +24°C° 0 mm 7 mps 723 mmHg 72%
    23:00 +24°C° 0 mm 7 mps 723 mmHg 75%

    27 August, Tuesday

    Time Temperature Precipitation Wind Pressure Humidity
    00:00 +23°C° 0 mm 7 mps 723 mmHg 79%
    01:00 +23°C° 0 mm 6 mps 723 mmHg 80%
    02:00 +22°C° 0 mm 5 mps 722 mmHg 81%
    03:00 +22°C° 0 mm 4 mps 722 mmHg 81%
    04:00 +22°C° 0 mm 4 mps 723 mmHg 83%
    05:00 +22°C° 0 mm 5 mps 723 mmHg 85%
    06:00 +21°C° 0 mm 5 mps 723 mmHg 87%
    07:00 +23°C° 0 mm 5 mps 724 mmHg 79%
    08:00 +24°C° 0 mm 6 mps 724 mmHg 71%
    09:00 +27°C° 0 mm 7 mps 725 mmHg 63%
    10:00 +28°C° 0 mm 7 mps 724 mmHg 59%
    11:00 +29°C° 0 mm 7 mps 724 mmHg 54%
    12:00 +30°C° 0 mm 7 mps 723 mmHg 50%
    13:00 +32°C° 0 mm 7 mps 722 mmHg 48%
    14:00 +32°C° 0 mm 7 mps 722 mmHg 45%
    15:00 +33°C° 0 mm 8 mps 721 mmHg 43%
    16:00 +32°C° 0 mm 8 mps 721 mmHg 47%
    17:00 +31°C° 0 mm 8 mps 721 mmHg 51%
    18:00 +29°C° 0 mm 8 mps 721 mmHg 55%
    19:00 +28°C° 0 mm 8 mps 721 mmHg 59%
    20:00 +27°C° 0 mm 8 mps 722 mmHg 64%
    21:00 +26°C° 0 mm 9 mps 722 mmHg 69%
    22:00 +26°C° 0 mm 8 mps 722 mmHg 72%
    23:00 +24°C° 0 mm 8 mps 722 mmHg 74%
    Show more